Wind_Speed
19 17 16 15 15 14 13 12 10 9 8 8 8 9 9 7 8 6 4 2 1 2 4 3 6 9 9 11 12 9 11 12 12 12 15 20 20 21 18 17 18 13 13 12 9
23 22 20 18 16 16 16 15 14 12 11 10 9 10 12 9 8 7 5 3 2 2 2 1 2 7 9 10 11 7 9 11 13 13 18 21 21 21 22 20 17 18 14 11 9
27 25 23 21 19 18 18 18 17 15 13 13 11 11 13 12 8 6 6 5 2 2 2 3 0 3 9 9 9 7 8 9 11 12 17 19 20 21 20 22 20 16 14 13 9
26 26 26 24 22 20 19 18 19 17 15 14 13 12 14 14 8 7 7 4 2 2 2 3 2 2 9 11 10 9 7 7 6 9 12 15 17 20 21 18 21 18 15 13 11
23 23 24 24 24 23 21 21 20 18 17 15 14 13 13 12 7 8 8 5 2 2 3 3 3 3 5 10 10 10 8 6 6 8 9 11 13 16 19 17 17 18 16 15 14
25 25 25 25 26 25 24 23 23 21 20 17 16 15 14 10 9 9 9 7 4 3 3 5 3 3 3 7 10 8 7 6 4 6 6 8 10 12 14 15 17 18 15 16 16
22 23 24 25 26 26 26 27 25 23 21 19 18 19 17 12 12 10 10 9 7 4 5 7 6 5 5 5 8 7 5 3 7 5 6 5 8 9 10 12 15 18 15 15 17
21 21 21 21 21 19 19 20 24 27 25 22 21 22 20 18 15 13 14 12 10 7 5 6 7 6 8 3 3 5 4 1 6 10 7 3 2 4 9 11 14 16 17 14 16
22 22 22 22 22 22 22 20 19 18 24 25 24 25 24 21 18 18 17 16 13 10 7 7 9 9 8 7 7 4 5 7 8 10 8 5 2 2 6 11 13 15 16 14 14
21 21 22 23 22 22 23 24 22 22 21 25 26 27 25 21 21 20 19 18 16 14 11 8 9 11 12 12 7 16 5 10 12 12 9 6 5 3 2 7 11 14 15 15 11
16 17 20 20 17 19 21 22 25 26 25 23 27 27 24 22 22 21 20 18 17 16 14 12 11 12 13 15 20 15 9 11 17 17 11 5 6 8 6 1 7 12 16 16 10
9 10 13 14 16 17 18 19 23 25 26 26 25 27 24 23 23 22 20 19 18 18 17 15 14 16 19 20 16 15 12 10 13 20 14 11 9 11 9 5 6 10 15 17 12
7 7 6 10 13 15 15 17 19 20 23 25 25 25 23 23 23 23 21 20 20 19 18 17 19 21 20 21 18 17 17 13 20 11 11 11 9 8 12 7 5 7 12 14 11
7 7 7 6 11 13 13 13 14 16 18 22 24 24 24 23 21 20 19 19 19 19 20 21 20 21 22 23 20 20 20 19 17 15 9 9 9 13 14 16 14 12 13 13 10
4 5 6 7 7 10 12 11 10 11 14 18 21 23 22 20 17 18 18 19 20 18 19 20 20 20 22 22 22 21 25 20 21 20 16 10 13 9 16 15 15 16 13 13 13
4 4 4 5 6 7 11 12 13 13 14 15 17 19 19 19 18 20 20 20 19 18 18 19 18 19 19 22 23 24 22 20 22 19 19 13 18 9 11 11 12 13 14 12 14
5 6 6 5 5 5 8 12 14 18 15 16 16 17 18 18 18 19 19 21 21 20 21 20 19 21 20 21 23 24 22 22 21 20 18 17 19 12 14 13 15 17 17 14 12
5 5 6 6 6 5 7 10 15 14 15 14 15 16 16 15 16 17 19 21 21 21 21 20 19 21 20 20 21 22 24 21 21 19 14 26 22 14 14 12 17 16 15 12 13
9 9 8 8 8 7 8 9 12 14 15 17 17 15 13 14 14 14 15 16 17 17 19 20 23 20 20 22 23 22 24 18 21 21 21 19 16 13 10 11 13 11 15 14 17
11 11 11 10 11 10 11 11 11 12 16 18 19 16 14 12 11 11 13 14 15 14 14 17 19 19 19 21 23 25 22 24 23 22 21 17 19 14 12 11 10 10 16 17 19
12 12 13 14 13 12 13 13 12 13 15 19 19 17 15 11 10 10 10 11 10 10 9 11 12 16 16 18 21 22 23 23 18 20 19 18 16 16 15 17 16 15 16 10 18
13 14 15 14 14 13 13 13 15 14 14 17 17 15 14 11 11 10 10 10 8 7 8 8 9 9 12 18 20 21 21 20 20 20 19 21 21 17 15 19 20 17 18 10 13
15 14 15 15 14 14 14 16 16 16 15 15 15 14 13 14 14 14 12 10 9 10 9 7 7 7 9 14 19 21 23 24 19 18 21 19 16 15 18 17 22 19 19 16 12
16 15 15 15 15 15 16 16 16 17 16 15 14 16 15 15 16 16 15 12 10 11 11 10 10 9 9 14 15 18 19 23 21 20 16 16 19 17 13 16 23 22 19 19 14
17 16 15 14 13 13 14 15 15 17 16 16 16 17 17 17 17 18 17 15 15 15 14 12 12 15 16 17 18 17 17 21 24 21 21 16 19 13 11 10 17 25 21 18 16
18 16 14 14 13 13 13 14 15 16 17 19 20 16 18 19 20 19 18 19 20 17 18 17 15 17 15 17 18 20 19 19 22 20 20 19 21 16 15 11 16 26 24 20 22
19 19 18 17 14 14 16 18 18 18 20 19 19 19 20 19 18 19 20 21 24 22 24 24 22 20 18 21 18 21 23 22 20 22 21 19 17 17 19 14 14 23 20 21 20
Wind_Direction
239 241 243 247 247 248 249 249 252 263 282 295 283 271 264 270 281 285 303 323 279 269 302 103 117 115 117 96 80 68 75 82 78 61 52 53 48 42 43 40 46 56 64 68 71
241 245 246 248 252 255 252 248 248 256 272 286 277 263 264 262 283 287 284 279 274 250 288 320 114 115 120 112 85 81 101 102 86 69 59 57 57 53 46 45 42 42 46 49 63
243 244 245 247 249 253 254 250 247 250 264 278 275 255 257 262 271 273 254 265 258 234 232 257 162 134 121 116 101 106 123 112 98 87 71 57 57 55 53 47 47 45 48 41 42
242 243 244 244 247 249 253 253 250 249 256 270 270 249 247 256 254 245 247 257 258 236 205 254 252 186 136 135 110 124 128 121 110 95 84 66 50 49 51 49 48 45 44 38 34
243 241 241 243 247 249 251 252 252 252 254 262 259 244 239 244 222 230 243 243 237 238 198 200 238 225 152 144 120 136 144 136 123 112 90 75 54 45 44 50 43 40 38 37 38
247 246 246 247 248 250 250 251 252 252 253 254 248 233 226 225 211 218 237 245 234 230 185 188 210 251 220 155 143 131 132 177 162 125 100 86 61 39 37 41 39 35 32 27 33
246 248 250 251 251 251 252 251 251 252 251 248 239 227 225 223 228 230 245 252 252 235 214 188 186 222 235 226 145 136 133 145 180 169 140 108 71 36 24 24 35 37 28 24 26
246 247 249 251 252 251 250 249 249 248 246 243 235 228 227 232 241 252 252 251 251 251 244 202 198 207 232 228 225 136 126 285 190 186 179 168 41 43 29 13 4 22 23 19 23
248 249 249 250 252 252 249 249 247 249 244 238 233 228 228 235 243 251 247 242 245 242 237 225 211 211 218 218 252 213 228 195 198 182 185 185 212 5 38 22 4 7 18 16 21
251 253 255 255 254 253 252 248 243 245 250 241 234 229 229 237 245 245 244 242 242 239 229 226 227 219 222 213 212 248 208 198 197 187 186 199 237 252 50 35 20 4 9 16 16
252 254 254 254 255 253 251 248 245 250 246 247 237 230 230 237 241 242 240 240 242 243 234 219 217 222 219 223 221 229 221 198 208 205 211 195 273 240 232 45 8 357 2 9 19
254 260 254 246 249 248 249 254 256 251 245 238 242 227 229 233 235 235 236 237 237 241 240 226 218 212 218 227 237 229 231 250 212 215 224 228 233 249 229 258 336 343 347 360 14
263 264 266 243 246 244 255 265 263 251 236 240 228 218 224 224 227 231 232 237 238 240 241 237 225 218 224 233 234 232 230 235 245 210 210 221 214 252 243 256 276 312 351 353 360
278 275 261 250 242 242 251 259 262 250 235 225 211 207 212 214 218 225 229 235 239 239 239 241 242 226 228 234 231 232 243 237 248 244 250 213 218 255 256 284 269 292 333 339 332
318 301 269 247 245 240 238 238 236 220 210 209 200 200 208 213 219 228 234 238 242 244 244 243 242 232 230 237 235 231 237 238 242 247 264 248 234 239 270 277 283 273 301 306 325
343 314 305 294 273 253 235 227 221 213 211 204 206 208 215 222 227 233 235 240 246 248 247 249 242 243 236 234 239 232 244 241 244 249 253 263 250 248 264 274 276 274 279 294 298
294 302 319 322 298 267 252 230 221 221 218 219 219 219 224 228 233 238 239 242 243 247 248 249 244 244 238 231 234 243 244 239 244 243 257 248 256 240 232 270 273 283 285 273 288
289 285 286 288 291 279 252 244 233 227 226 228 228 228 225 228 233 234 236 240 242 243 250 249 249 244 241 238 237 234 237 231 237 243 253 257 261 260 252 265 276 274 283 261 265
274 276 278 274 280 271 259 244 243 234 229 229 234 228 222 222 230 236 239 241 244 247 247 253 253 253 249 237 235 237 233 230 231 242 228 237 273 252 272 265 260 274 277 266 251
273 277 272 269 271 271 260 253 242 236 232 233 234 235 234 224 223 231 241 249 251 253 252 255 258 255 252 245 239 236 229 230 232 227 245 253 267 255 259 242 257 279 271 277 255
265 276 278 275 274 272 261 252 243 238 229 232 236 235 233 226 226 228 242 252 256 260 252 253 252 261 258 249 243 238 239 237 221 238 240 259 267 266 255 228 236 250 268 285 245
272 275 278 277 273 267 259 246 238 236 234 233 235 239 240 234 233 239 238 244 255 252 262 257 262 260 256 260 246 240 232 231 236 241 256 245 238 256 269 229 235 242 254 238 237
270 274 275 277 270 260 251 245 237 234 233 231 233 234 235 235 235 227 228 240 242 255 266 265 270 271 280 263 254 245 242 235 228 236 232 251 262 270 269 231 229 230 241 243 254
264 267 272 274 265 255 251 247 243 235 233 231 226 221 220 224 229 231 230 227 230 242 246 246 238 233 222 237 245 260 248 244 232 241 255 262 275 273 270 239 229 228 240 255 249
261 260 264 263 255 250 245 249 247 244 239 236 232 223 219 217 223 229 229 229 224 223 225 224 237 245 253 264 272 255 243 241 236 236 238 245 262 269 274 243 230 225 236 253 259
254 255 254 251 246 240 238 238 236 240 239 238 239 233 231 225 221 223 226 232 241 237 246 240 235 232 236 254 256 264 254 243 244 238 248 245 255 276 277 280 223 220 235 251 259
252 254 248 242 246 246 240 240 238 238 240 239 239 237 235 233 229 228 232 240 246 245 248 249 251 258 250 257 242 241 249 247 245 246 251 256 271 262 268 267 224 213 224 249 258
Height
5904 5905 5906 5908 5909 5910 5911 5912 5914 5914 5915 5915 5915 5915 5915 5915 5916 5918 5918 5920 5920 5921 5922 5923 5924 5926 5926 5927 5927 5927 5926 5927 5925 5922 5920 5917 5915 5913 5911 5909 5906 5905 5903 5902 5901
5900 5902 5903 5905 5906 5908 5909 5910 5912 5913 5913 5914 5914 5914 5914 5914 5916 5916 5918 5918 5919 5921 5922 5923 5924 5926 5927 5928 5928 5928 5927 5927 5926 5924 5922 5920 5917 5915 5912 5910 5908 5906 5905 5903 5902
5895 5898 5899 5901 5903 5904 5906 5907 5909 5910 5911 5911 5912 5912 5912 5913 5915 5915 5916 5918 5919 5920 5922 5923 5924 5926 5927 5928 5929 5929 5929 5928 5927 5925 5923 5921 5919 5917 5914 5911 5909 5908 5906 5905 5903
5891 5893 5895 5897 5899 5901 5902 5904 5905 5907 5908 5908 5909 5910 5911 5911 5915 5914 5915 5917 5918 5919 5921 5923 5925 5926 5927 5929 5929 5930 5930 5930 5928 5926 5924 5921 5920 5918 5916 5915 5912 5910 5908 5906 5904
5887 5888 5890 5892 5895 5897 5899 5900 5901 5903 5905 5906 5906 5908 5909 5910 5912 5912 5913 5915 5917 5918 5920 5922 5924 5925 5926 5928 5929 5930 5930 5930 5929 5928 5925 5923 5921 5919 5917 5916 5914 5912 5910 5907 5905
5882 5884 5886 5888 5890 5892 5894 5895 5897 5899 5901 5903 5903 5905 5906 5909 5910 5911 5912 5914 5915 5917 5919 5921 5923 5923 5924 5927 5928 5929 5930 5930 5929 5928 5927 5925 5922 5920 5918 5916 5915 5913 5911 5909 5906
5876 5878 5880 5882 5884 5887 5888 5890 5892 5894 5896 5898 5900 5902 5904 5907 5907 5909 5911 5912 5914 5916 5917 5919 5921 5922 5923 5924 5926 5928 5929 5929 5929 5929 5928 5926 5924 5921 5919 5916 5915 5914 5912 5910 5908
5872 5874 5876 5877 5879 5881 5883 5884 5886 5888 5891 5894 5896 5898 5901 5902 5905 5907 5909 5910 5911 5914 5916 5917 5919 5921 5921 5923 5924 5927 5928 5931 5928 5928 5928 5927 5926 5923 5920 5918 5915 5914 5913 5911 5909
5867 5869 5871 5873 5875 5877 5878 5880 5882 5883 5885 5888 5892 5894 5897 5899 5901 5903 5905 5907 5909 5912 5914 5916 5918 5919 5920 5921 5926 5926 5931 5927 5927 5927 5928 5928 5926 5924 5922 5919 5916 5915 5914 5912 5910
5863 5864 5866 5867 5870 5871 5873 5874 5876 5879 5881 5883 5886 5890 5893 5895 5897 5899 5901 5904 5906 5909 5912 5914 5916 5917 5917 5920 5927 5928 5927 5926 5925 5927 5927 5928 5927 5925 5923 5921 5918 5916 5914 5913 5911
5858 5860 5861 5863 5864 5866 5867 5869 5872 5874 5876 5878 5881 5884 5887 5890 5892 5895 5897 5900 5902 5905 5908 5911 5913 5913 5916 5917 5919 5920 5922 5924 5924 5925 5926 5927 5927 5926 5923 5922 5920 5917 5916 5914 5913
5855 5856 5856 5858 5859 5860 5862 5863 5865 5867 5869 5871 5874 5878 5882 5885 5888 5890 5893 5896 5898 5900 5903 5908 5909 5910 5911 5913 5915 5916 5919 5923 5923 5923 5925 5926 5925 5925 5924 5922 5921 5919 5917 5916 5914
5852 5853 5853 5854 5855 5856 5857 5859 5859 5860 5862 5865 5868 5874 5877 5881 5883 5885 5889 5891 5894 5896 5899 5902 5904 5906 5908 5909 5911 5913 5916 5922 5918 5920 5923 5923 5924 5924 5924 5922 5921 5920 5918 5916 5915
5850 5850 5851 5851 5853 5853 5854 5855 5855 5855 5857 5861 5864 5868 5872 5875 5879 5881 5884 5888 5890 5892 5895 5897 5899 5902 5903 5904 5908 5910 5913 5913 5914 5916 5922 5921 5924 5924 5922 5921 5921 5921 5919 5917 5917
5848 5848 5848 5848 5849 5850 5852 5852 5853 5855 5857 5860 5862 5865 5869 5874 5877 5879 5882 5884 5886 5889 5892 5893 5895 5898 5899 5902 5903 5907 5907 5910 5911 5913 5917 5919 5920 5923 5920 5920 5919 5919 5918 5917 5916
5846 5846 5846 5847 5847 5848 5849 5850 5852 5856 5856 5859 5861 5864 5868 5871 5874 5876 5878 5880 5883 5885 5886 5888 5890 5892 5896 5898 5899 5901 5903 5906 5908 5911 5913 5917 5918 5921 5922 5918 5917 5915 5915 5914 5913
5845 5845 5845 5845 5846 5846 5847 5848 5851 5851 5855 5857 5858 5861 5864 5868 5870 5872 5875 5877 5879 5881 5882 5884 5886 5887 5890 5892 5895 5897 5900 5903 5907 5909 5911 5915 5911 5915 5915 5915 5914 5912 5912 5911 5910
5842 5842 5843 5843 5844 5844 5845 5846 5847 5849 5850 5852 5855 5858 5861 5864 5866 5868 5870 5872 5874 5876 5879 5880 5882 5882 5886 5888 5890 5892 5896 5901 5904 5908 5913 5909 5907 5911 5910 5910 5910 5909 5908 5908 5906
5839 5839 5840 5840 5841 5842 5843 5843 5844 5845 5848 5850 5852 5854 5858 5861 5863 5864 5866 5868 5870 5873 5876 5877 5877 5879 5881 5883 5885 5888 5889 5897 5901 5905 5905 5909 5907 5906 5906 5907 5907 5907 5904 5903 5902
5835 5836 5836 5837 5837 5838 5839 5840 5841 5843 5845 5846 5849 5852 5856 5859 5861 5862 5863 5865 5867 5870 5872 5873 5874 5875 5876 5878 5881 5881 5885 5888 5891 5897 5900 5903 5902 5904 5903 5903 5904 5904 5901 5899 5899
5830 5831 5832 5832 5833 5834 5835 5836 5837 5839 5841 5843 5845 5849 5852 5856 5858 5859 5860 5862 5863 5865 5867 5869 5872 5872 5873 5874 5875 5878 5880 5884 5890 5894 5897 5900 5902 5901 5898 5898 5898 5899 5897 5896 5895
5825 5827 5826 5827 5829 5829 5829 5831 5833 5835 5837 5839 5842 5845 5848 5852 5854 5856 5857 5858 5860 5862 5863 5865 5867 5868 5870 5868 5871 5873 5876 5880 5883 5887 5889 5892 5895 5896 5895 5894 5895 5895 5895 5893 5894
5820 5821 5822 5823 5824 5824 5825 5826 5828 5830 5832 5835 5838 5841 5844 5847 5850 5852 5853 5855 5857 5858 5860 5862 5863 5866 5866 5867 5867 5868 5871 5875 5880 5885 5886 5888 5890 5892 5889 5890 5890 5891 5891 5891 5891
5815 5816 5817 5818 5819 5820 5820 5822 5824 5825 5827 5831 5834 5837 5840 5843 5845 5848 5850 5852 5854 5856 5857 5858 5861 5863 5868 5866 5865 5864 5866 5869 5874 5878 5882 5884 5884 5884 5884 5886 5887 5887 5888 5888 5889
5810 5811 5812 5813 5814 5815 5816 5818 5820 5821 5823 5826 5829 5832 5835 5839 5841 5843 5846 5848 5850 5852 5853 5855 5857 5857 5858 5859 5859 5861 5864 5866 5866 5872 5876 5881 5879 5878 5879 5880 5881 5883 5884 5884 5884
5805 5806 5807 5809 5810 5811 5812 5813 5815 5817 5819 5820 5822 5826 5829 5832 5835 5837 5840 5843 5844 5847 5847 5849 5851 5852 5853 5854 5855 5856 5857 5860 5862 5864 5867 5870 5870 5873 5874 5876 5877 5879 5879 5879 5879
5799 5800 5802 5804 5805 5806 5807 5808 5810 5812 5814 5816 5818 5821 5823 5825 5829 5832 5834 5836 5838 5840 5841 5843 5845 5846 5849 5850 5850 5852 5854 5856 5859 5860 5863 5866 5869 5868 5869 5871 5872 5874 5875 5874 5875